GORIZONT 26 [-]

Last updated on Jan. 25, 2020, 4:43 a.m. UTC

1 22041U 92043A   20024.29166278 -.00000326  00000-0  00000-0 0  9998
2 22041  15.0239   2.9874 0029517 220.7303 142.7603  0.99245742100299
UTC
Height (km)
Latitude
Longitude
Inclination
Orbital Period
UTC large
Height (km)
Speed (km/s)
/
Latitude / Longitude
Inclination (degrees)
Orbital Period (minutes)
Azimuth
Elevation
Range (km)
Doppler Factor
iOS Compass Heading
iOS Angle

Next 30 passes for location: Hong Kong

Rise time Rise Azimuth (degrees) Set time Set Azimuth (degrees) Duration Max altitude (degrees)

No matching passes for this satellites